Regional Weather Roundup
Issued by NWS

Home | Current Version | Previous Version | Graphics & Text | Print | Product List | Glossary Off
Versions: 1 2 3 4 5 6 7 8 9 10 11 12 13 14 15 16 17 18 19 20 21 22 23 24 25 26 27 28 29 30 31 32 33 34 35 36 37 38 39 40 41 42 43 44 45 46 47 48 49 50

000
ASUS44 KFWD 291503
RWRTX
NORTH TEXAS HOURLY WEATHER ROUNDUP
NATIONAL WEATHER SERVICE FORT WORTH TX
1000 AM CDT THU JUN 29 2017

NOTE: "FAIR" INDICATES FEW OR NO CLOUDS BELOW 12,000 FEET WITH NO
SIGNIFICANT WEATHER AND/OR OBSTRUCTIONS TO VISIBILITY.

TXZ118-119-291600-
DALLAS/FORT WORTH METROPLEX

CITY           SKY/WX    TMP DP  RH WIND       PRES   REMARKS
DFW AIRPORT    CLOUDY    80  73  79 S14       29.87S
DALLAS LOVE    CLOUDY    78  71  79 S10       29.89S
FTW MEACHAM    MOSUNNY   82  74  76 S13       29.87S
DAL-EXECUTIVE  CLOUDY    77  73  87 S9        29.89S
FTW-ALLIANCE   PTSUNNY   81  73  76 S14       29.88R
FTW-NAS-JRB    MOSUNNY   80  73  79 S13       29.88S
FTW-SPINKS     PTSUNNY   81  72  74 SE10G18   29.90S
ARLINGTON      CLOUDY    79  74  84 S9        29.89S
GRAND PRAIRIE  CLOUDY    79  72  78 S9        29.90F
MESQUITE       CLOUDY    79  72  78 S8        29.91S
LANCASTER      CLOUDY    76  71  86 S6        29.92R
$$

TXZ091>094-102>105-117-120-121-131>134-291600-
NORTH CENTRAL TEXAS

CITY           SKY/WX    TMP DP  RH WIND       PRES   REMARKS
SHRMAN/DENISON CLOUDY    79  71  77 S14       29.90S
GAINESVILLE    CLOUDY    79  72  78 S16       29.90S
BOWIE          MOSUNNY   82  73  74 S13G18    29.86S
BRIDGEPORT     SUNNY     83  71  67 S10       29.88S
DECATUR        MOSUNNY   81  72  74 S15       29.88F
DENTON         PTSUNNY   80  73  79 S17       29.88S
MCKINNEY       CLOUDY    78  74  87 S10       29.90R
BONHAM         PTSUNNY   79  70  73 S15       29.91R
GREENVILLE     CLOUDY    81  72  74 S8        29.92S
ROCKWALL       CLOUDY    78  73  84 S13G18    29.91R
TERRELL        CLOUDY    78  72  81 SE8       29.91S
WAXAHACHIE     CLOUDY    77  74  91 SE8       29.92S
CLEBURNE       CLOUDY    79  75  89 S9G17     29.91S
GRANBURY       PTSUNNY   84  72  67 SE10      29.89S
$$

TXZ083>090-098>101-113>116-127>130-139>142-154-155-291600-
WESTERN NORTH TEXAS

CITY           SKY/WX    TMP DP  RH WIND       PRES   REMARKS
WICHITA FALLS  SUNNY     83  70  64 S21G26    29.82R
WF-KICKAPOO    SUNNY     82  71  67 S17G25    29.84R
VERNON         MOSUNNY   84  63  48 S20G26    29.80S
ABILENE        SUNNY     80  69  69 S15G26    29.87R
ABILENE-DYESS  MOSUNNY   83  69  64 S15G25    29.85R
GRAHAM         SUNNY     83  71  65 S12G17    29.83F
BRECKENRIDGE   SUNNY     82  69  64 S16G24    29.86S
CISCO          PTSUNNY   81  72  74 S17       29.89S
EASTLAND       MOSUNNY   80  71  75 S17       29.88F
RANGER         PTSUNNY   78  71  79 S13       29.90F
MINERAL WELLS  SUNNY     83  71  67 S14       29.86S
STEPHENVILLE   MOSUNNY   79  70  74 S10       29.93S
COMANCHE       SUNNY     82  72  71 S13G20    29.91R
BROWNWOOD      PTSUNNY   82  72  69 S12G17    29.89F
COLEMAN        PTSUNNY   82  69  64 S17       29.90R
$$

TXZ143>147-156>162-174-175-291600-
CENTRAL TEXAS

CITY           SKY/WX    TMP DP  RH WIND       PRES   REMARKS
WACO           CLOUDY    79  73  82 S12       29.91R
WACO-MCGREGOR  CLOUDY    80  73  79 S9        29.91S
HILLSBORO      CLOUDY    80  73  81 S12       29.91S
CORSICANA      CLOUDY    81  74  79 S8        29.92R
MEXIA          CLOUDY    78  71  78 SE8       29.91S
HEARNE         CLOUDY    80  76  87 SE7       29.92S
CAMERON        CLOUDY    82  73  74 S5        29.91S
TEMPLE         MOSUNNY   83  72  69 S14       29.91S
KILLEEN        MOSUNNY   81  72  72 S12       29.90S
KILLEEN-SKYLRK PTSUNNY   82  73  74 S9        29.91S
FORT HOOD      PTSUNNY   79  71  78 S8        29.88S
HAMILTON       SUNNY     83  71  67 S14G21    29.92S
$$

TXZ095>097-106>112-122>126-135>138-148>153-164>167-291600-
EAST TEXAS

CITY           SKY/WX    TMP DP  RH WIND       PRES   REMARKS
PARIS            N/A     76  71  85 S7        29.93S
SULPHUR SPRNGS CLOUDY    80  71  74 S8        29.94S
MOUNT PLEASANT CLOUDY    77  71  82 S6        29.95R
GILMER         CLOUDY    77  70  79 SE7       29.94R
MINEOLA        CLOUDY    77  70  78 S9        29.93R
TYLER          PTSUNNY   80  72  76 S12       29.93S
LONGVIEW       PTSUNNY   81  74  79 S7        29.93R
MARSHALL         N/A     77  70  77 S6        29.95S
ATHENS         CLOUDY    77  72  83 S7        29.91S
PALESTINE      CLOUDY    77  73  87 SE6       29.94R
JACKSONVILLE   CLOUDY    74  72  92 S6        29.96R
HENDERSON      CLOUDY    78  72  82 S3        29.94S
CENTER         CLOUDY    82  77  85 SE5       29.94R HX  90
NACOGDOCHES      N/A    N/A N/A N/A CALM      29.91S
LUFKIN         CLOUDY    78  74  87 S7        29.92S
$$

SUPPLEMENTAL OBSERVATIONS (NWS FORT WORTH AREA)

CITY           SKY/WX    TMP DP  RH WIND       PRES   REMARKS
$$

SUPPLEMENTAL OBSERVATIONS (NWS NORMAN AREA)

CITY           SKY/WX    TMP DP  RH WIND       PRES   REMARKS
GOODLETT         N/A     84  64  50 S21       29.80R
ODELL            N/A     83  69  62 S13       29.82S
CROWELL          N/A     84  67  56 S21G28    29.81F
KNOX CITY        N/A     84  64  51 S23       29.82S
SEYMOUR          N/A     83  67  58 S20       29.82S
$$

SUPPLEMENTAL OBSERVATIONS (NWS SAN ANGELO AREA)

CITY           SKY/WX    TMP DP  RH WIND       PRES   REMARKS
WEINERT          N/A     84  69  59 S23       29.83S
HASKELL          N/A     82  65  56 S18G25    29.83F
THROCKMORTON     N/A     81  72  74 S15       29.85S
STAMFORD         N/A     83  69  62 S20       29.86R
CLYDE            N/A     80  70  72 S15       29.90S
$$

SUPPLEMENTAL OBSERVATIONS (NWS SHREVEPORT AREA)

CITY           SKY/WX    TMP DP  RH WIND       PRES   REMARKS
$$

SUPPLEMENTAL OBSERVATIONS ARE A COLLECTION OF AUTOMATED INSTRUMENTS
THAT ARE MAINTAINED BY A VARIETY OF FEDERAL AND STATE AGENCIES.
CERTAIN ELEMENTS...SUCH AS HUMIDITY VALUES AND SUSTAINED WIND
SPEEDS...MAY BE APPROXIMATED.





USA.gov is the U.S. government's official web portal to all federal, state and local government web resources and services.